Location: Ernez
(36.4595°N, 29.8755°E)
Time: 09:17:43
(UTC+00:00)

COSMO-SKYMED 1 - Pass Details

Date: 13 November 2025
Orbit: 579 x 581 km, 97.9° (Epoch: 05 December)

Event Time Altitude Azimuth Distance (km) Brightness Sun altitude
Exits shadow 16:58:46 - 354° (N) 2,254 5.5 -25.3°
Reaches altitude 10° 16:59:44 10° 349° (NNW) 1,900 5.1 -25.5°
Maximum altitude 17:03:16 29° 289° (WNW) 1,083 4.3 -26.2°
Drops below altitude 10° 17:06:48 10° 229° (SW) 1,888 5.7 -26.9°
Sets 17:09:09 0° 218° (SW) 2,782 6.5 -27.4°
